Wind_Speed
9 9 10 11 12 11 11 12 13 12 11 10 10 10 10 10 10 10 9 8 7 7 7 7 7 7 7 7 6 6 5 4 3 3 4 4 5 5 4 3 3 3 3 3 3 3 3 2 2
10 10 10 10 11 11 11 11 11 11 11 10 10 10 10 10 10 9 9 8 8 8 8 8 7 7 7 7 7 7 5 4 3 3 4 4 4 4 4 4 3 3 3 3 3 3 3 2 2
11 10 10 11 11 11 11 11 11 11 11 10 10 10 10 10 10 9 8 8 8 8 8 8 8 7 7 7 8 7 6 5 5 4 5 5 5 5 4 4 3 3 3 2 2 2 3 2 2
10 11 11 11 11 12 11 11 11 11 10 10 10 10 10 9 10 9 8 8 8 8 8 8 8 8 8 8 8 8 8 7 7 6 6 6 5 5 4 4 4 3 3 3 2 2 3 3 2
10 11 12 11 11 12 12 12 12 11 10 10 10 10 9 9 9 9 8 8 9 9 8 8 7 7 8 8 9 9 9 9 8 7 6 6 5 5 4 4 4 3 4 3 2 2 2 2 2
11 12 12 12 11 12 12 12 12 11 11 10 9 9 10 9 9 9 9 8 8 9 8 8 7 7 8 8 9 9 10 9 8 7 7 6 6 5 5 4 4 3 3 3 2 2 2 1 1
11 12 12 12 12 12 12 12 12 12 12 11 10 9 9 9 9 9 10 10 9 9 9 9 9 8 8 8 9 9 9 9 8 8 7 7 6 5 4 4 4 3 3 3 2 2 2 1 1
12 12 12 12 12 12 12 12 12 12 11 10 10 10 10 10 9 9 10 10 10 9 10 10 9 8 8 8 8 7 7 7 7 7 6 6 6 5 5 4 4 3 3 2 2 1 1 1 2
10 11 12 12 12 12 12 12 12 11 11 10 10 10 10 10 10 9 10 10 10 10 10 10 10 9 8 8 7 7 6 6 6 6 6 5 5 5 5 4 4 3 3 2 1 1 1 1 2
9 9 11 11 11 12 13 12 11 11 10 10 10 10 9 9 9 9 9 9 10 10 11 11 11 10 9 8 8 7 7 6 5 5 5 5 5 4 4 4 3 3 2 2 2 1 0 1 1
7 8 9 10 10 12 12 12 12 11 10 10 10 10 9 9 9 9 9 9 9 9 10 10 10 9 9 8 8 7 7 6 5 5 5 4 4 3 3 3 3 3 2 2 1 1 0 1 2
7 8 9 10 10 11 11 12 12 11 10 11 10 9 10 10 9 9 9 9 9 9 9 9 9 9 8 8 7 7 6 6 5 4 3 3 3 2 2 2 3 2 2 2 1 1 1 2 2
6 7 7 8 9 10 10 11 11 10 10 9 9 8 9 10 10 9 8 8 8 9 8 8 8 8 8 7 7 6 5 5 4 4 3 2 1 2 1 1 2 1 2 1 2 2 2 2 3
5 5 5 6 7 8 8 9 9 10 9 9 8 9 9 9 9 9 7 7 7 8 8 7 7 7 7 6 6 5 5 4 3 3 2 2 1 1 1 1 1 1 2 2 3 3 3 4 4
4 4 5 6 6 7 7 8 8 8 9 8 8 8 8 8 8 7 7 6 7 7 7 6 7 7 6 6 6 5 5 4 3 2 2 2 1 1 2 2 3 3 3 3 3 4 4 4 5
4 3 4 5 5 6 6 7 7 7 7 7 6 6 6 7 7 6 7 6 6 6 6 6 6 6 6 6 6 5 4 4 3 3 3 2 2 2 2 2 3 3 3 4 4 4 5 5 6
3 3 3 3 3 4 5 5 5 7 6 6 6 5 5 5 5 5 6 5 5 5 6 6 5 5 5 5 5 5 4 4 4 4 3 3 3 3 3 4 4 4 4 5 5 5 6 6 6
4 3 1 0 1 2 3 4 5 6 5 5 5 6 4 4 4 4 4 5 5 5 6 6 6 5 5 5 5 5 4 4 4 4 4 4 3 4 4 5 5 5 6 6 6 6 6 7 7
5 5 4 3 4 4 4 4 4 5 5 5 4 4 3 2 3 4 5 5 4 5 5 6 6 5 6 6 6 6 5 5 5 4 4 4 4 5 5 5 6 7 7 7 7 7 8 8 8
6 6 6 5 5 5 4 4 5 5 5 4 4 4 4 3 4 5 5 5 5 5 5 5 6 6 6 7 8 7 7 6 6 5 6 6 6 5 6 6 6 7 7 7 7 8 9 9 8
8 8 8 9 8 7 7 7 6 6 6 5 4 4 4 4 5 5 5 5 5 6 6 6 6 7 7 7 8 7 7 7 6 7 7 7 6 6 6 7 7 7 8 8 8 9 9 10 10
9 9 10 10 10 9 9 7 6 6 6 6 6 5 4 5 6 7 6 6 6 7 7 8 8 7 8 8 8 7 7 7 7 8 8 8 7 7 7 8 8 9 9 9 10 10 10 11 11
11 11 11 11 11 11 10 9 7 7 7 7 8 7 7 7 7 7 7 7 7 7 8 8 8 8 8 9 8 8 8 8 8 8 8 8 7 8 9 9 10 10 11 11 11 11 11 12 12
13 14 14 13 13 12 11 11 8 8 8 8 8 8 8 8 8 9 9 8 8 8 9 9 10 10 10 10 9 8 9 8 8 9 8 8 8 9 9 10 11 11 12 12 13 13 13 13 13
15 15 16 15 14 13 12 12 10 11 10 10 10 10 9 8 9 10 10 10 9 9 10 10 10 11 11 10 9 9 9 9 9 9 9 9 9 10 10 11 12 12 13 13 14 14 14 14 13
15 16 17 16 16 15 14 14 12 12 12 11 10 10 11 10 10 10 11 11 10 10 11 11 11 12 12 11 10 10 10 10 10 11 11 11 11 11 12 12 13 13 13 14 14 15 15 15 15
17 17 17 18 18 18 17 16 15 14 13 12 12 12 12 12 12 11 11 11 11 11 12 12 12 12 12 12 12 11 11 12 12 12 12 12 12 13 13 13 13 14 14 15 15 15 15 16 16
18 18 19 19 21 21 20 18 17 15 15 15 14 13 13 13 13 13 12 13 13 13 13 13 13 13 13 13 13 13 13 13 13 13 13 13 14 14 14 15 15 15 15 15 15 16 16 16 17
19 20 20 21 22 22 21 19 17 16 16 16 16 15 14 14 14 14 14 15 15 15 15 15 15 15 15 15 15 15 15 15 15 15 15 15 15 16 16 16 17 16 16 16 16 17 17 18 18
21 22 22 22 22 22 21 20 18 18 18 18 17 15 15 16 16 15 15 16 16 16 16 15 15 15 16 16 16 16 16 16 17 17 17 17 17 17 17 18 18 17 17 17 17 18 18 18 18
Wind_Direction
77 77 76 72 70 70 73 73 73 72 71 68 66 64 62 59 57 56 52 50 47 50 60 67 70 65 61 62 58 55 50 51 67 82 92 103 110 108 94 93 95 105 121 134 144 145 151 148 158
77 74 74 70 71 68 72 71 71 68 68 67 64 60 56 55 55 53 51 48 48 55 62 63 64 64 60 58 51 50 48 61 76 94 103 107 109 99 93 96 100 108 125 140 152 158 152 154 160
76 71 72 71 72 70 75 71 68 66 62 63 62 56 54 54 53 48 48 49 51 57 63 64 62 59 58 58 56 52 53 65 83 104 108 109 107 100 93 101 113 124 136 152 168 167 166 162 153
75 72 71 68 70 72 72 67 68 66 62 62 62 58 56 51 50 48 48 54 60 65 69 67 62 61 60 58 60 58 60 74 89 96 102 101 100 100 96 102 107 115 134 149 164 174 169 159 152
79 73 71 70 73 75 72 68 67 66 62 59 60 58 53 48 48 47 52 62 67 67 68 67 70 64 64 64 65 66 72 81 90 98 105 102 99 96 96 103 105 108 118 132 144 163 164 163 156
79 77 73 71 71 71 72 71 70 66 62 61 58 56 53 49 47 51 57 66 70 67 65 64 69 70 73 70 70 71 77 81 84 88 95 100 103 103 103 102 105 104 108 128 137 148 158 173 185
77 80 72 69 68 69 66 68 71 66 62 60 60 55 56 54 52 55 62 64 63 63 61 64 69 73 75 72 72 74 75 77 76 79 86 87 93 94 94 95 92 85 95 118 126 124 155 200 221
79 77 75 71 68 67 66 67 68 66 59 56 58 56 56 60 57 58 61 61 62 61 61 67 70 70 71 69 68 70 70 69 70 79 85 81 81 82 83 89 84 79 90 115 133 136 148 217 237
81 76 74 72 69 67 65 66 64 62 61 61 58 54 57 61 58 58 62 64 61 60 61 64 66 66 66 64 65 66 64 62 65 81 86 80 76 80 81 82 79 75 78 109 133 140 177 217 241
80 77 72 72 73 69 66 64 62 65 61 61 58 55 56 55 55 59 63 66 64 59 61 63 62 63 62 61 61 61 60 59 60 69 78 79 75 83 85 77 69 63 63 90 95 88 287 222 252
83 85 74 70 74 70 65 63 61 63 61 58 56 53 51 51 52 55 59 64 63 59 57 57 56 58 57 56 58 59 59 57 59 62 68 80 76 83 79 68 65 62 49 51 53 19 345 278 253
88 84 73 70 72 72 67 63 60 61 62 62 58 54 50 49 49 53 60 60 60 59 57 55 53 54 53 53 55 55 59 60 61 68 69 77 76 82 71 57 49 44 33 22 0 336 299 271 259
99 91 77 72 73 73 68 63 60 59 60 61 56 51 48 46 48 54 59 58 60 58 55 52 50 49 48 50 52 52 54 55 59 63 70 62 57 73 61 25 17 22 8 340 304 283 272 260 256
112 101 85 71 70 68 63 61 57 56 56 56 50 47 47 47 50 52 55 57 57 53 51 49 46 45 43 42 47 49 49 52 57 48 43 35 16 18 360 324 317 324 319 312 308 295 281 275 261
125 110 88 73 67 64 64 58 53 47 48 49 49 49 48 48 48 47 45 48 52 47 43 42 43 43 40 34 34 35 34 34 29 20 3 351 338 324 315 305 307 313 309 308 306 298 285 286 278
144 125 98 88 72 60 58 54 43 36 40 46 48 44 43 42 36 34 33 32 37 37 36 32 34 33 29 24 22 25 24 23 17 3 356 343 323 303 299 296 302 305 303 305 308 305 298 297 289
180 150 115 95 63 41 33 40 31 24 29 43 39 29 29 30 25 22 21 25 26 22 22 17 15 18 17 18 18 20 14 9 1 353 343 329 311 300 296 290 294 293 291 297 305 309 304 300 292
211 215 204 163 344 354 3 12 4 12 19 21 18 15 17 21 15 10 13 10 13 11 10 8 5 5 6 6 0 360 355 353 350 343 336 329 308 303 303 294 290 289 288 289 293 297 302 299 292
223 227 257 278 281 302 320 340 339 345 357 1 5 5 12 352 338 351 2 5 4 -0 3 3 1 2 1 354 348 344 338 335 336 333 326 317 310 304 302 305 300 293 287 285 286 289 294 296 293
234 242 261 270 280 285 294 307 324 332 342 348 352 345 334 331 337 345 351 351 344 340 339 338 343 350 352 344 336 332 328 324 325 321 313 306 301 295 290 290 295 299 294 288 288 289 289 292 294
243 251 257 266 273 278 283 296 304 317 319 331 335 342 342 319 320 323 329 324 323 325 320 323 336 336 336 336 332 327 326 324 318 315 311 303 294 287 281 285 288 291 294 296 299 297 292 289 290
245 248 253 264 267 272 277 290 299 301 303 310 310 311 323 324 325 322 314 313 312 312 313 322 323 325 325 325 323 322 318 313 310 307 305 301 291 285 287 289 287 286 289 294 298 299 296 293 290
244 249 253 260 271 272 276 284 298 297 300 302 300 300 306 309 314 318 310 300 299 301 305 312 312 313 315 316 315 312 311 310 307 307 306 301 292 287 285 288 286 285 286 289 292 295 296 294 292
244 251 257 264 272 275 278 284 294 293 298 300 299 296 300 306 308 304 298 292 290 293 299 305 306 307 309 312 310 306 307 309 304 302 302 297 293 289 285 286 285 283 284 285 287 289 292 293 290
248 256 262 267 273 278 281 284 294 291 289 293 295 296 294 300 304 298 296 294 293 292 295 299 302 304 305 306 304 302 301 301 303 300 297 294 290 289 289 288 287 285 282 283 286 289 291 290 289
253 258 263 269 275 277 277 283 292 289 289 293 294 289 289 295 295 295 295 295 290 288 290 295 300 302 303 300 299 297 297 297 298 299 296 292 290 290 292 291 291 287 285 283 285 289 291 290 291
251 255 264 269 274 275 278 283 286 288 289 292 291 288 287 292 293 289 288 293 290 285 289 293 297 300 300 297 294 293 296 296 296 297 292 287 285 288 291 291 291 287 286 285 285 286 290 288 291
250 255 263 271 276 278 279 283 286 285 287 290 294 290 287 290 289 283 284 291 290 288 288 291 295 298 299 297 295 291 291 290 291 293 294 289 286 286 289 290 290 287 286 285 289 287 290 290 291
252 257 264 269 274 279 279 283 284 283 283 285 288 289 288 288 288 284 284 288 289 287 288 289 291 294 294 294 291 289 289 288 288 289 291 290 291 291 291 289 289 289 287 288 288 289 290 291 291
255 259 263 267 269 275 277 280 281 281 280 281 282 283 282 288 286 286 286 287 288 288 289 289 288 293 291 290 290 289 289 288 287 288 290 293 295 296 293 292 291 291 288 289 288 289 289 289 290
Height
5880 5880 5880 5880 5880 5879 5878 5878 5877 5877 5877 5877 5876 5876 5876 5876 5876 5878 5875 5873 5872 5872 5871 5870 5870 5870 5869 5869 5868 5868 5867 5867 5868 5869 5871 5872 5874 5875 5875 5876 5877 5878 5879 5880 5881 5882 5883 5883 5884
5882 5882 5883 5882 5881 5880 5880 5879 5879 5878 5878 5878 5877 5877 5876 5876 5876 5876 5875 5874 5873 5873 5872 5871 5871 5870 5870 5869 5868 5867 5866 5865 5866 5868 5871 5872 5874 5875 5875 5876 5877 5878 5879 5880 5881 5882 5883 5883 5884
5884 5884 5885 5884 5882 5882 5882 5881 5880 5880 5880 5879 5879 5878 5878 5878 5877 5876 5876 5875 5874 5873 5873 5872 5872 5871 5870 5870 5868 5867 5865 5864 5865 5868 5870 5872 5874 5875 5876 5876 5877 5878 5879 5880 5881 5882 5883 5883 5884
5886 5887 5887 5886 5884 5883 5883 5882 5881 5881 5881 5881 5880 5880 5880 5879 5878 5877 5877 5876 5875 5874 5874 5873 5873 5872 5872 5871 5869 5868 5866 5865 5866 5869 5871 5873 5874 5875 5876 5876 5877 5878 5879 5880 5881 5882 5883 5883 5884
5888 5888 5888 5887 5886 5885 5884 5884 5883 5883 5882 5882 5882 5881 5881 5881 5880 5878 5878 5877 5876 5875 5875 5874 5873 5873 5873 5872 5871 5870 5869 5869 5869 5871 5873 5874 5875 5876 5876 5877 5878 5879 5880 5880 5881 5882 5883 5884 5884
5891 5890 5889 5888 5888 5887 5886 5885 5885 5885 5884 5884 5884 5883 5882 5882 5881 5880 5879 5878 5877 5877 5876 5874 5874 5874 5874 5873 5873 5872 5872 5872 5872 5873 5874 5875 5876 5876 5877 5878 5878 5879 5880 5881 5882 5882 5883 5883 5884
5892 5891 5890 5890 5889 5889 5888 5887 5887 5887 5886 5886 5885 5884 5884 5883 5882 5881 5880 5880 5879 5878 5876 5874 5874 5875 5875 5875 5875 5875 5875 5874 5875 5875 5875 5876 5877 5877 5878 5878 5879 5880 5880 5881 5882 5882 5883 5883 5884
5893 5894 5892 5891 5891 5890 5890 5889 5889 5888 5888 5887 5887 5886 5885 5885 5884 5883 5882 5881 5880 5879 5878 5876 5877 5877 5877 5877 5877 5877 5876 5876 5876 5876 5877 5877 5877 5878 5878 5879 5880 5880 5881 5881 5882 5882 5883 5883 5883
5894 5896 5893 5893 5892 5892 5891 5891 5890 5890 5889 5889 5888 5888 5887 5886 5885 5884 5883 5883 5882 5881 5880 5879 5879 5878 5878 5878 5878 5878 5878 5877 5877 5878 5878 5878 5878 5879 5879 5880 5880 5880 5881 5881 5882 5882 5882 5883 5883
5896 5896 5895 5895 5894 5893 5893 5892 5892 5892 5891 5890 5890 5889 5888 5888 5887 5886 5885 5884 5883 5883 5882 5881 5881 5880 5879 5879 5879 5879 5878 5878 5878 5878 5878 5879 5879 5880 5880 5880 5881 5881 5881 5881 5881 5882 5882 5882 5882
5897 5897 5897 5896 5896 5895 5895 5894 5893 5893 5893 5892 5892 5891 5890 5889 5888 5887 5886 5885 5884 5884 5883 5882 5882 5881 5881 5880 5880 5880 5879 5879 5879 5879 5879 5879 5880 5880 5880 5881 5881 5881 5881 5881 5881 5881 5881 5882 5882
5898 5898 5898 5897 5897 5897 5896 5896 5895 5895 5895 5894 5893 5892 5891 5890 5889 5888 5887 5887 5886 5885 5884 5884 5883 5882 5882 5881 5881 5881 5880 5880 5879 5879 5879 5880 5880 5880 5881 5881 5881 5881 5881 5881 5881 5881 5881 5881 5881
5900 5900 5900 5899 5898 5898 5897 5897 5896 5896 5895 5895 5894 5893 5892 5891 5890 5889 5889 5888 5887 5886 5885 5884 5884 5883 5883 5882 5882 5881 5881 5880 5880 5880 5880 5880 5880 5880 5881 5881 5881 5881 5881 5881 5881 5881 5881 5880 5880
5901 5901 5900 5900 5899 5899 5898 5898 5898 5897 5896 5896 5895 5894 5894 5893 5892 5891 5890 5889 5888 5887 5886 5886 5885 5884 5884 5883 5883 5882 5882 5881 5881 5880 5880 5880 5880 5880 5880 5880 5881 5881 5881 5881 5880 5880 5880 5879 5879
5901 5902 5902 5901 5900 5900 5899 5899 5899 5898 5897 5896 5896 5895 5895 5894 5893 5892 5891 5890 5889 5888 5887 5886 5886 5885 5884 5884 5883 5882 5882 5881 5881 5880 5880 5879 5879 5880 5880 5880 5880 5880 5880 5880 5880 5879 5879 5878 5878
5902 5902 5902 5902 5901 5900 5902 5901 5900 5898 5898 5897 5897 5896 5895 5894 5893 5893 5891 5891 5890 5889 5888 5887 5886 5885 5885 5884 5883 5883 5882 5881 5880 5880 5879 5879 5879 5879 5879 5879 5879 5879 5879 5879 5879 5878 5878 5877 5877
5902 5903 5902 5902 5902 5901 5902 5901 5900 5900 5899 5898 5898 5897 5896 5895 5894 5893 5892 5891 5890 5889 5888 5887 5886 5885 5885 5884 5883 5883 5882 5881 5880 5879 5879 5878 5878 5878 5878 5878 5878 5878 5878 5878 5877 5877 5876 5876 5875
5902 5902 5902 5902 5902 5902 5901 5901 5900 5900 5899 5898 5898 5897 5896 5895 5894 5893 5892 5891 5890 5889 5888 5887 5886 5885 5884 5884 5883 5882 5881 5880 5879 5879 5878 5877 5877 5877 5877 5877 5877 5876 5877 5876 5876 5876 5875 5874 5874
5901 5902 5902 5902 5902 5901 5901 5901 5900 5899 5899 5898 5897 5896 5896 5895 5894 5892 5891 5890 5890 5889 5888 5887 5886 5885 5884 5883 5882 5882 5881 5880 5879 5878 5877 5877 5876 5876 5876 5876 5876 5875 5875 5875 5875 5874 5873 5872 5872
5900 5901 5901 5901 5901 5901 5900 5900 5900 5899 5899 5898 5897 5896 5895 5894 5894 5892 5891 5891 5890 5889 5888 5887 5885 5884 5883 5882 5881 5880 5879 5878 5878 5877 5876 5875 5875 5874 5874 5874 5874 5874 5873 5873 5873 5872 5871 5871 5870
5899 5900 5900 5900 5900 5899 5900 5900 5900 5899 5898 5897 5896 5895 5895 5894 5893 5892 5891 5890 5889 5888 5887 5886 5885 5883 5882 5881 5880 5879 5878 5877 5877 5876 5875 5874 5873 5873 5873 5873 5872 5872 5872 5871 5870 5870 5869 5868 5868
5897 5898 5898 5898 5898 5898 5899 5898 5899 5898 5897 5896 5895 5895 5894 5893 5892 5891 5890 5889 5888 5887 5886 5885 5884 5883 5882 5881 5879 5878 5877 5876 5875 5874 5873 5872 5871 5871 5871 5870 5870 5870 5869 5869 5868 5867 5866 5866 5865
5895 5895 5896 5896 5896 5897 5897 5896 5898 5897 5896 5895 5895 5894 5893 5892 5891 5890 5889 5888 5887 5886 5885 5884 5882 5881 5880 5879 5878 5877 5875 5874 5873 5872 5871 5870 5869 5869 5868 5868 5868 5867 5867 5866 5865 5865 5864 5863 5862
5893 5893 5894 5894 5894 5895 5895 5895 5895 5895 5894 5894 5893 5892 5891 5890 5889 5888 5887 5885 5885 5884 5883 5882 5881 5880 5879 5877 5876 5875 5874 5872 5871 5870 5869 5868 5867 5866 5866 5865 5865 5864 5864 5863 5862 5861 5860 5859 5859
5890 5892 5892 5891 5892 5892 5892 5892 5893 5892 5892 5892 5891 5891 5889 5888 5887 5886 5884 5883 5882 5882 5881 5880 5879 5878 5877 5875 5874 5873 5871 5870 5869 5867 5866 5865 5864 5864 5863 5862 5861 5861 5860 5859 5859 5858 5857 5856 5855
5887 5888 5889 5889 5889 5889 5889 5889 5891 5890 5889 5889 5889 5888 5887 5886 5884 5883 5882 5881 5880 5879 5879 5878 5876 5875 5874 5873 5871 5870 5869 5867 5866 5864 5863 5862 5861 5860 5860 5859 5858 5857 5856 5856 5855 5854 5853 5852 5851
5883 5884 5885 5885 5885 5885 5885 5886 5886 5886 5886 5886 5885 5885 5884 5883 5881 5880 5879 5878 5877 5876 5876 5875 5874 5872 5871 5870 5868 5867 5866 5864 5863 5861 5860 5859 5858 5857 5856 5855 5854 5853 5852 5851 5851 5850 5849 5847 5847
5880 5880 5881 5881 5880 5880 5881 5881 5882 5882 5882 5882 5882 5881 5880 5879 5878 5877 5876 5875 5874 5873 5872 5872 5870 5869 5867 5866 5865 5864 5862 5861 5859 5858 5857 5855 5854 5853 5852 5851 5850 5849 5848 5847 5846 5845 5844 5843 5842
5876 5876 5876 5876 5876 5876 5876 5879 5878 5878 5878 5878 5877 5877 5876 5875 5874 5874 5873 5871 5870 5869 5868 5867 5866 5865 5864 5863 5861 5860 5858 5857 5855 5854 5853 5852 5850 5849 5848 5847 5846 5845 5844 5843 5842 5841 5840 5839 5838
5871 5871 5872 5872 5872 5871 5871 5875 5873 5873 5873 5873 5872 5872 5872 5871 5870 5869 5869 5867 5866 5865 5864 5863 5862 5861 5860 5859 5857 5855 5854 5853 5852 5850 5849 5848 5846 5845 5844 5843 5841 5840 5839 5838 5837 5836 5835 5834 5833